Staples, MN

11:05 PM CST on December 10, 2016 (GMT -0600)
Staples Municipal

Weather History for KSAZ - May, 2013

Change the Weather History Date:

Wednesday, May 15, 2013

  Actual Average Record
Temperature  
Mean Temperature 62 °F -  
Max Temperature 80 °F 62 °F 91 °F (2001)
Min Temperature 44 °F 41 °F 26 °F (2016)
Degree Days  
Heating Degree Days 3    
Growing Degree Days 12 (Base 50)    
Moisture  
Dew Point 37 °F    
Average Humidity 44    
Maximum Humidity 81    
Minimum Humidity 17    
Precipitation  
Precipitation 0.00 in - - ()
Sea Level Pressure  
Sea Level Pressure 29.83 in    
Wind  
Wind Speed 8 mph (West)    
Max Wind Speed 21 mph    
Max Gust Speed 29 mph    
Visibility 10 miles    
Events      
Averages and records for this station are not official NWS values.
T = Trace of Precipitation, MM = Missing Value Source: NWS Daily Summary

Daily Weather History Graph

Daily Weather History Graph

Search for Another Location

Airport or City:

Trip Planner

Search our weather history database for the weather conditions in past years. The results will help you decide how hot, cold, wet, or windy it might be!

Date:

Astronomy

May. 15, 2013 Rise Set
Actual Time 5:45 AM CDT 8:46 PM CDT
Civil Twilight 5:10 AM CDT 9:21 PM CDT
Nautical Twilight 4:24 AM CDT 10:07 PM CDT
Astronomical Twilight 3:29 AM CDT 11:03 PM CDT
Moon 10:25 AM CDT (5/15) 12:30 AM CDT (5/15)
Length of Visible Light 16h 11m
Length of Day
15h 00m
Waxing Crescent, 27% of the Moon is Illuminated
May 15
Waxing Crescent
May 17
First Quarter
May 24
Full
May 31
Last Quarter
Jun 8
New

Hourly Weather History & Observations

Time (CDT) Temp. Windchill Dew Point Humidity Pressure Visibility Wind Dir Wind Speed Gust Speed Precip Events Conditions
12:13 AM 55.4 °F - 42.8 °F 63% 29.76 in 10.0 mi NW 13.8 mph - N/A   Clear
12:34 AM 55.4 °F - 42.8 °F 63% 29.77 in 10.0 mi NW 12.7 mph 18.4 mph N/A   Clear
12:53 AM 55.4 °F - 42.8 °F 63% 29.78 in 10.0 mi NW 10.4 mph - N/A   Clear
1:13 AM 53.6 °F - 42.8 °F 67% 29.78 in 10.0 mi NW 8.1 mph - N/A   Clear
1:34 AM 51.8 °F - 42.8 °F 71% 29.79 in 10.0 mi WNW 5.8 mph - N/A   Clear
1:53 AM 48.2 °F - 41.0 °F 76% 29.80 in 10.0 mi West 5.8 mph - N/A   Clear
2:13 AM 46.4 °F 44.3 °F 41.0 °F 81% 29.80 in 10.0 mi West 4.6 mph - N/A   Clear
2:34 AM 46.4 °F 45.2 °F 41.0 °F 81% 29.80 in 10.0 mi West 3.5 mph - N/A   Clear
2:53 AM 44.6 °F 40.7 °F 39.2 °F 81% 29.81 in 10.0 mi West 6.9 mph - N/A   Clear
3:13 AM 44.6 °F 41.4 °F 39.2 °F 81% 29.80 in 10.0 mi West 5.8 mph - N/A   Clear
3:34 AM 44.6 °F 41.4 °F 39.2 °F 81% 29.81 in 10.0 mi West 5.8 mph - N/A   Clear
3:53 AM 46.4 °F - 39.2 °F 76% 29.82 in 10.0 mi Calm Calm - N/A   Clear
4:13 AM 46.4 °F - 39.2 °F 76% 29.82 in 10.0 mi Calm Calm - N/A   Clear
4:34 AM 46.4 °F 45.2 °F 39.2 °F 76% 29.82 in 10.0 mi WSW 3.5 mph - N/A   Clear
4:53 AM 44.6 °F 43.1 °F 39.2 °F 81% 29.81 in 10.0 mi West 3.5 mph - N/A   Clear
5:13 AM 44.6 °F 42.2 °F 39.2 °F 81% 29.82 in 10.0 mi West 4.6 mph - N/A   Clear
5:34 AM 44.6 °F 43.1 °F 39.2 °F 81% 29.84 in 10.0 mi West 3.5 mph - N/A   Clear
5:53 AM 46.4 °F 43.5 °F 39.2 °F 76% 29.85 in 10.0 mi WSW 5.8 mph - N/A   Clear
6:13 AM 44.6 °F 41.4 °F 39.2 °F 81% 29.86 in 10.0 mi West 5.8 mph - N/A   Clear
6:34 AM 46.4 °F 44.3 °F 41.0 °F 81% 29.87 in 10.0 mi West 4.6 mph - N/A   Clear
6:53 AM 50.0 °F - 42.8 °F 76% 29.89 in 10.0 mi WSW 6.9 mph - N/A   Clear
7:13 AM 51.8 °F - 42.8 °F 71% 29.89 in 10.0 mi West 4.6 mph - N/A   Clear
7:33 AM 55.4 °F - 42.8 °F 63% 29.89 in 10.0 mi WSW 6.9 mph - N/A   Clear
7:53 AM 55.4 °F - 42.8 °F 63% 29.89 in 10.0 mi WSW 6.9 mph - N/A   Clear
8:13 AM 57.2 °F - 42.8 °F 59% 29.89 in 10.0 mi WSW 5.8 mph - N/A   Clear
8:33 AM 60.8 °F - 42.8 °F 52% 29.89 in 10.0 mi WSW 3.5 mph - N/A   Clear
8:54 AM 62.6 °F - 42.8 °F 48% 29.88 in 10.0 mi SW 5.8 mph - N/A   Clear
9:13 AM 64.4 °F - 41.0 °F 42% 29.88 in 10.0 mi SW 6.9 mph - N/A   Clear
9:33 AM 66.2 °F - 41.0 °F 40% 29.88 in 10.0 mi WSW 6.9 mph - N/A   Clear
9:54 AM 68.0 °F - 42.8 °F 40% 29.87 in 10.0 mi West 8.1 mph - N/A   Clear
10:13 AM 69.8 °F - 41.0 °F 35% 29.87 in 10.0 mi WSW 11.5 mph 16.1 mph N/A   Clear
10:34 AM 71.6 °F - 39.2 °F 31% 29.87 in 10.0 mi West 13.8 mph 19.6 mph N/A   Clear
10:53 AM 73.4 °F - 39.2 °F 29% 29.86 in 10.0 mi West 12.7 mph 20.7 mph N/A   Clear
11:13 AM 73.4 °F - 37.4 °F 27% 29.86 in 10.0 mi West 11.5 mph 21.9 mph N/A   Clear
11:33 AM 75.2 °F - 35.6 °F 24% 29.86 in 10.0 mi WNW 8.1 mph 21.9 mph N/A   Clear
11:53 AM 75.2 °F - 33.8 °F 22% 29.86 in 10.0 mi NW 15.0 mph 23.0 mph N/A   Clear
12:14 PM 75.2 °F - 35.6 °F 24% 29.86 in 10.0 mi WNW 9.2 mph 24.2 mph N/A   Clear
12:33 PM 77.0 °F - 33.8 °F 21% 29.85 in 10.0 mi WNW 16.1 mph 24.2 mph N/A   Scattered Clouds
12:53 PM 77.0 °F - 33.8 °F 21% 29.85 in 10.0 mi WNW 12.7 mph 23.0 mph N/A   Scattered Clouds
1:14 PM 78.8 °F - 30.2 °F 17% 29.84 in 10.0 mi WNW 16.1 mph 23.0 mph N/A   Scattered Clouds
1:33 PM 78.8 °F - 33.8 °F 20% 29.84 in 10.0 mi WNW 16.1 mph 28.8 mph N/A   Clear
1:53 PM 78.8 °F - 30.2 °F 17% 29.83 in 10.0 mi WNW 15.0 mph 25.3 mph N/A   Scattered Clouds
2:14 PM 78.8 °F - 30.2 °F 17% 29.84 in 10.0 mi West 19.6 mph 28.8 mph N/A   Scattered Clouds
2:33 PM 78.8 °F - 32.0 °F 18% 29.83 in 10.0 mi West 16.1 mph 28.8 mph N/A   Clear
2:53 PM 75.2 °F - 32.0 °F 21% 29.83 in 10.0 mi WNW 15.0 mph 21.9 mph N/A   Clear
3:12 PM 78.8 °F - 32.0 °F 18% 29.82 in 10.0 mi West 11.5 mph 15.0 mph N/A   Scattered Clouds
3:33 PM 78.8 °F - 32.0 °F 18% 29.82 in 10.0 mi NNW 10.4 mph 18.4 mph N/A   Scattered Clouds
3:53 PM 78.8 °F - 30.2 °F 17% 29.81 in 10.0 mi NW 8.1 mph - N/A   Scattered Clouds
4:13 PM 78.8 °F - 32.0 °F 18% 29.81 in 10.0 mi West 20.7 mph 26.5 mph N/A   Scattered Clouds
4:33 PM 80.6 °F - 33.8 °F 18% 29.80 in 10.0 mi West 11.5 mph 17.3 mph N/A   Scattered Clouds
4:54 PM 75.2 °F - 32.0 °F 21% 29.80 in 10.0 mi WNW 9.2 mph - N/A   Scattered Clouds
5:13 PM 78.8 °F - 33.8 °F 20% 29.80 in 10.0 mi West 11.5 mph 16.1 mph N/A   Scattered Clouds
5:33 PM 77.0 °F - 33.8 °F 21% 29.79 in 10.0 mi West 9.2 mph - N/A   Scattered Clouds
5:54 PM 75.2 °F - 32.0 °F 21% 29.79 in 10.0 mi West 10.4 mph - N/A   Scattered Clouds
6:13 PM 75.2 °F - 32.0 °F 21% 29.79 in 10.0 mi West 10.4 mph 16.1 mph N/A   Scattered Clouds
6:33 PM 75.2 °F - 33.8 °F 22% 29.79 in 10.0 mi WNW 6.9 mph - N/A   Scattered Clouds
6:54 PM 75.2 °F - 33.8 °F 22% 29.78 in 10.0 mi WNW 8.1 mph - N/A   Clear
7:13 PM 75.2 °F - 32.0 °F 21% 29.78 in 10.0 mi WNW 8.1 mph - N/A   Clear
7:33 PM 75.2 °F - 32.0 °F 21% 29.78 in 10.0 mi NW 5.8 mph - N/A   Clear
7:53 PM 73.4 °F - 33.8 °F 23% 29.78 in 10.0 mi WNW 3.5 mph - N/A   Clear
8:13 PM 73.4 °F - 33.8 °F 23% 29.78 in 10.0 mi Calm Calm - N/A   Scattered Clouds
8:34 PM 69.8 °F - 35.6 °F 28% 29.78 in 10.0 mi Calm Calm - N/A   Scattered Clouds
8:53 PM 68.0 °F - 35.6 °F 30% 29.79 in 10.0 mi Calm Calm - N/A   Clear
9:13 PM 66.2 °F - 35.6 °F 32% 29.80 in 10.0 mi North 4.6 mph - N/A   Clear
9:34 PM 66.2 °F - 35.6 °F 32% 29.81 in 10.0 mi NNE 5.8 mph - N/A   Clear
9:53 PM 64.4 °F - 35.6 °F 34% 29.82 in 10.0 mi NE 3.5 mph - N/A   Clear
10:13 PM 64.4 °F - 35.6 °F 34% 29.82 in 10.0 mi NNE 3.5 mph - N/A   Clear
10:33 PM 62.6 °F - 35.6 °F 37% 29.83 in 10.0 mi Calm Calm - N/A   Clear
10:53 PM 62.6 °F - 35.6 °F 37% 29.83 in 10.0 mi Calm Calm - N/A   Clear
11:13 PM 59.0 °F - 35.6 °F 42% 29.84 in 10.0 mi Calm Calm - N/A   Clear
11:33 PM 55.4 °F - 37.4 °F 51% 29.84 in 10.0 mi Calm Calm - N/A   Clear
11:53 PM 53.6 °F - 39.2 °F 58% 29.85 in 10.0 mi Calm Calm - N/A   Clear